This is the latest recevied weather packets stored in our database for station/object LZ2SLL-13. If no packets are shown the sender has not sent any weather packets the latest 10 day(s).
| Time | Temp. | Humidity | Pressure | Rain* | Wind** | Luminosity | Snow |
|---|---|---|---|---|---|---|---|
| 1777017558 | 16.67° C | 42% | - | 0 mm | - | 706 W/m² | - |
| 1777017258 | 16.67° C | 41% | - | 0 mm | - | 903 W/m² | - |
| 1777016957 | 16.67° C | 42% | - | 0 mm | - | 619 W/m² | - |
| 1777016657 | 16.67° C | 43% | - | 0 mm | - | 857 W/m² | - |
| 1777016356 | 16.11° C | 44% | - | 0 mm | - | 797 W/m² | - |
| 1777016056 | 16.11° C | 45% | - | 0 mm | - | 772 W/m² | - |
| 1777015755 | 15.56° C | 46% | - | 0 mm | - | 720 W/m² | - |
| 1777015454 | 15.56° C | 47% | - | 0 mm | - | 744 W/m² | - |
| 1777015154 | 15.56° C | 47% | - | 0 mm | - | 850 W/m² | - |
| 1777014853 | 15.56° C | 47% | - | 0 mm | - | 417 W/m² | - |
| 1777014553 | 15° C | 46% | - | 0 mm | - | 452 W/m² | - |
| 1777014252 | 15° C | 47% | - | 0 mm | - | 687 W/m² | - |
| 1777013951 | 15.56° C | 48% | - | 0 mm | - | 605 W/m² | - |
| 1777013651 | 14.44° C | 47% | - | 0 mm | - | 580 W/m² | - |
| 1777013350 | 14.44° C | 48% | - | 0 mm | - | 555 W/m² | - |
| 1777013049 | 14.44° C | 49% | - | 0 mm | - | 544 W/m² | - |
| 1777012749 | 14.44° C | 47% | - | 0 mm | - | 561 W/m² | - |
| 1777012448 | 14.44° C | 49% | - | 0 mm | - | 532 W/m² | - |
| 1777012148 | 13.89° C | 49% | - | 0 mm | - | 488 W/m² | - |
| 1777011847 | 14.44° C | 50% | - | 0 mm | - | 468 W/m² | - |
| 1777011547 | 13.33° C | 50% | - | 0 mm | - | 453 W/m² | - |
| 1777011246 | 13.33° C | 50% | - | 0 mm | - | 439 W/m² | - |
| 1777010945 | 13.89° C | 50% | - | 0 mm | - | 414 W/m² | - |
| 1777010645 | 13.33° C | 51% | - | 0 mm | - | 363 W/m² | - |
| 1777010344 | 13.33° C | 51% | - | 0 mm | - | 388 W/m² | - |
* Rain latest hour (hover to see other rain measurements)
** Current wind speed in m/s (hover to see current wind gust speed)